Flag for Moldova Weather past 2 weeks in Bălți, Moldova

Now
63 °F

Mild.


Feels Like: 63 °F
Forecast: 63 / 91 °F
Wind: 6 mph from North

Location: Baltsi-Leadoveni - The North of Moldova

Current Time: Jul 25, 2014 at 3:00:56 AM

Latest Report: Jul 25, 2014 at 2:30 AM


Visibility: 3 mi

Pressure: 29.89 "Hg

Humidity: 100%

Dew point: 63 °F

Location of BălțiLocation

Historic Weather in Bălți — Graph

°F

Bălți temperature yesterday

Maximum temperature yesterday: 75 °F (at 3:00 PM)
Minimum temperature yesterday: 63 °F (at 12:00 AM)
Average temperature yesterday: 68 °F

Past Weeks' High & Low Weather Summary

 TemperatureHumidityPressure
High84 °F (Jul 21, 1:30 PM)100% (Jul 10, 5:30 AM)30.04 "Hg (Jul 10, 5:30 AM)
Low59 °F (Jul 13, 1:00 AM)37% (Jul 14, 3:30 PM)29.56 "Hg (Jul 11, 4:30 PM)
Average70 °F76%29.87 "Hg
* Reported Jul 10 2:00 AM — Jul 25 2:00 AM, Bălți, Weather by CustomWeather, © 2014

Note: Actual official high and low records may vary slightly from our data, if they occured in-between our weather recording intervals... More about our weather records

Advertising

Bălți weather history for previous 24 hours

 ConditionsComfort  
Time TempWeatherWind HumidityBarometerVisibility
2:00 AM
Jul 25
63 °FMild.7 mph100%29.89 "Hg4 mi
1:30 AM63 °FMild.3 mph100%29.89 "HgN/A
1:00 AM63 °FMild.3 mph100%29.89 "HgN/A
12:30 AM63 °FMild.5 mph100%29.89 "HgN/A
12:00 AM64 °FMild.6 mph94%29.89 "HgN/A
11:30 PM
Jul 24
64 °FMild.7 mph94%29.89 "HgN/A
11:00 PM66 °FMild.7 mph88%29.89 "HgN/A
10:30 PM66 °FMild.9 mph88%29.89 "HgN/A
9:30 PM68 °FMild.8 mph83%29.89 "HgN/A
9:00 PM68 °FMild.6 mph83%29.89 "HgN/A
8:30 PM70 °FMild.8 mph78%29.89 "HgN/A
8:00 PM70 °FMild.7 mph78%29.86 "HgN/A
7:30 PM72 °FMild.8 mph73%29.86 "HgN/A
7:00 PM72 °FMild.10 mph69%29.86 "HgN/A
6:30 PM72 °FPassing clouds.7 mph73%29.86 "HgN/A
6:00 PM73 °FScattered clouds.8 mph65%29.86 "HgN/A
5:30 PM75 °FScattered clouds.8 mph57%29.86 "HgN/A
5:00 PM75 °FScattered clouds.10 mph61%29.86 "HgN/A
4:30 PM73 °FScattered clouds.13 mph61%29.86 "HgN/A
4:00 PM75 °FScattered clouds.12 mph65%29.86 "HgN/A
3:30 PM75 °FScattered clouds.10 mph69%29.86 "HgN/A
3:00 PM75 °FScattered clouds.8 mph69%29.86 "HgN/A
2:30 PM73 °FThundershowers. Partly sunny.9 mph74%29.86 "HgN/A
2:00 PM73 °FThundershowers. Partly sunny.7 mph78%29.86 "HgN/A
1:30 PM73 °FBroken clouds.8 mph78%29.86 "HgN/A
1:00 PM73 °FScattered clouds.8 mph78%29.86 "HgN/A
12:30 PM72 °FScattered clouds.7 mph83%29.86 "HgN/A
12:00 PM72 °FBroken clouds.5 mph78%29.86 "HgN/A
11:30 AM72 °FPartly sunny.5 mph78%29.86 "HgN/A
11:00 AM70 °FPartly sunny.8 mph83%29.86 "HgN/A
10:30 AM68 °FBroken clouds.7 mph94%29.86 "HgN/A
10:00 AM64 °FScattered clouds.8 mph94%29.86 "HgN/A
9:30 AM64 °FScattered clouds.9 mph94%29.86 "HgN/A
8:30 AM64 °FLight rain. Partly sunny.9 mph94%29.86 "Hg4 mi
8:00 AM63 °FMild.8 mph100%29.86 "Hg3 mi
7:30 AM63 °FMild.7 mph100%29.86 "Hg3 mi
7:00 AM63 °FMild.8 mph100%29.83 "Hg3 mi
6:30 AM63 °FMild.9 mph94%29.83 "Hg3 mi
6:00 AM63 °FMild.8 mph100%29.83 "HgN/A
5:30 AM63 °FMild.6 mph100%29.83 "HgN/A
5:00 AM63 °FMild.7 mph94%29.83 "HgN/A
4:30 AM63 °FMild.6 mph94%29.83 "HgN/A
4:00 AM63 °FMild.8 mph94%29.83 "HgN/A
3:30 AM63 °FMild.7 mph94%29.83 "HgN/A
3:00 AM63 °FMild.9 mph94%29.83 "HgN/A
Weather by CustomWeather, © 2014

See weather overviewHow to use our weather pages